[[{"header":{"parameterUnit":"m.s-1","parameterCategory":1,"la1":30.2991,"la2":30.254,"lo1":-89.0895,"lo2":-89.0444,"dy":0.0017,"dx":0.0017,"nx":28,"ny":28,"refTime":"2025-09-08T03:00:00:Z","depth":0,"parameterNumber":2,"parameterNumberName":"U-component_of_WINDS"},"data":[0,0,0,0,0,0,0,0,0,0,0,0,0,0,0,0,0,0,0,0,0,0,0,0,0,0,0,0,0,0,0,0,0,0,0,0,0,0,0,0,0,0,0,0,0,0,0,0,0,0,0,0,0,0,0,0,0,0,-0.4375,-0.4374,0,-0.4341,-0.4341,-0.434,-0.4314,-0.4314,-0.4314,-0.4313,-0.4278,-0.4277,-0.4277,0,0,0,0,0,0,0,0,0,0,0,0,0,-0.4414,-0.4414,-0.4375,-0.4374,-0.4374,-0.4341,-0.4341,-0.434,-0.4314,-0.4314,-0.4313,-0.4313,-0.4278,-0.4277,-0.4276,0,0,0,0,0,0,0,0,0,0,0,0,0,-0.4391,-0.4414,-0.4375,-0.4357,-0.4355,-0.4341,-0.4341,-0.434,-0.4314,-0.4314,-0.4313,-0.4313,-0.4278,-0.4277,-0.4276,-0.4277,0,0,-0.4273,-0.4273,0,0,0,0,0,0,0,0,-0.4392,-0.4389,-0.436,-0.4358,-0.4356,-0.4331,-0.4342,-0.4319,-0.4314,-0.433,-0.4313,-0.4313,-0.4296,-0.4293,-0.4288,-0.4276,-0.4274,-0.4273,-0.4272,-0.4272,-0.4272,0,0,0,0,0,0,0,-0.4394,-0.4391,-0.4361,-0.4359,-0.4357,-0.435,-0.4346,-0.4337,-0.4315,-0.4328,-0.4326,-0.4323,-0.4295,-0.4289,-0.4287,-0.4274,-0.4273,-0.4272,-0.4271,-0.4271,-0.4259,-0.426,0,0,0,0,0,0,-0.4398,-0.4392,-0.4362,-0.436,-0.4373,-0.435,-0.4345,-0.434,-0.4315,-0.4311,-0.4323,-0.4322,-0.4291,-0.4288,-0.4286,-0.4284,-0.4272,-0.4271,-0.427,-0.4259,-0.4259,-0.426,0,0,0,0,0,0,-0.4399,-0.4396,-0.4364,-0.4376,-0.4371,-0.4349,-0.4343,-0.4339,-0.4333,-0.4311,-0.4307,-0.4321,-0.4291,-0.4287,-0.4279,-0.4283,-0.427,-0.4269,-0.4259,-0.4259,-0.4259,-0.4283,0,0,0,0,0,0,-0.4401,-0.4396,-0.4397,-0.4376,-0.437,-0.4359,-0.4343,-0.4339,-0.4332,-0.4329,-0.4309,-0.4305,-0.429,-0.4281,-0.4278,-0.4281,-0.4269,-0.4258,-0.4259,-0.4259,-0.4282,-0.4284,-0.4286,0,0,0,0,0,-0.4402,-0.4405,-0.4397,-0.4394,-0.4371,-0.4359,-0.4356,-0.4339,-0.4332,-0.4332,-0.4318,-0.4305,-0.4283,-0.4281,-0.4277,-0.428,-0.4258,-0.4259,-0.4259,-0.4281,-0.4283,-0.4286,0,0,0,0,0,0,-0.4427,-0.4402,-0.4393,-0.4389,-0.4376,-0.4355,-0.4354,-0.4343,-0.4331,-0.433,-0.4309,-0.4305,-0.4299,-0.4288,-0.4286,-0.4279,-0.4269,-0.4269,-0.4286,-0.4289,-0.4291,-0.4293,-0.4268,0,0,0,0,0,-0.4432,-0.4425,-0.4403,-0.4402,-0.4396,-0.4376,-0.437,-0.4359,-0.4344,-0.4339,-0.4324,-0.431,-0.43,-0.4294,-0.4283,-0.428,-0.4274,-0.428,-0.4282,-0.4284,-0.4284,-0.4281,-0.4283,-0.4262,-0.4262,-0.4262,0,0,-0.4442,-0.4428,-0.4425,-0.4406,-0.4395,-0.4388,-0.4372,-0.4365,-0.4359,-0.4338,-0.4329,-0.4318,-0.4301,-0.4296,-0.4292,-0.4287,-0.4289,-0.4285,-0.4287,-0.4286,-0.4282,-0.4284,-0.4286,-0.4263,-0.4262,-0.4262,0,0,-0.4457,-0.4446,-0.4443,-0.4432,-0.4415,-0.4402,-0.4401,-0.4381,-0.4373,-0.4364,-0.4348,-0.434,-0.4323,-0.4312,-0.4304,-0.4313,-0.4301,-0.431,-0.4322,-0.4319,-0.4321,-0.4322,-0.4325,-0.4326,-0.4311,-0.4311,-0.4311,0,-0.4472,-0.4461,-0.4443,-0.4437,-0.4429,-0.441,-0.4406,-0.4396,-0.4377,-0.4371,-0.4365,-0.4343,-0.433,-0.4321,-0.4324,-0.4318,-0.4316,-0.4313,-0.4322,-0.4323,-0.4324,-0.4327,-0.4328,-0.4312,-0.4312,-0.4312,-0.4312,0,-0.448,-0.4472,-0.4472,-0.4454,-0.4446,-0.4441,-0.4422,-0.4416,-0.4405,-0.4392,-0.4383,-0.4367,-0.4352,-0.4349,-0.4338,-0.4338,-0.4335,-0.4326,-0.4315,-0.4328,-0.433,-0.4331,-0.4314,-0.4313,-0.4313,-0.4313,0,0,-0.451,-0.4482,-0.4482,-0.4473,-0.4453,-0.4446,-0.444,-0.4426,-0.4421,-0.4408,-0.4402,-0.4388,-0.4378,-0.4369,-0.4356,-0.4354,-0.4362,-0.4344,-0.4344,-0.4348,-0.4361,-0.4368,-0.4369,-0.4354,-0.4354,-0.4354,-0.4362,0,-0.4522,-0.4511,-0.4494,-0.4488,-0.448,-0.4461,-0.4456,-0.4442,-0.443,-0.4421,-0.4407,-0.4397,-0.4386,-0.438,-0.4377,-0.4362,-0.4364,-0.4361,-0.4347,-0.4347,-0.4352,-0.4371,-0.4378,-0.4387,-0.4363,-0.4363,-0.4363,0,-0.4534,-0.4522,-0.4516,-0.4495,-0.4491,-0.4487,-0.4472,-0.4464,-0.4448,-0.4439,-0.4429,-0.4415,-0.4406,-0.4397,-0.4385,-0.4383,-0.4376,-0.4368,-0.4368,-0.4366,-0.4356,-0.4369,-0.4389,-0.439,-0.4364,-0.4364,-0.4364,0,-0.4557,-0.4539,-0.4532,-0.4526,-0.4502,-0.4499,-0.4488,-0.4472,-0.4464,-0.4451,-0.4446,-0.4432,-0.4425,-0.4414,-0.4396,-0.4391,-0.4386,-0.4375,-0.4378,-0.4378,-0.4378,-0.4378,-0.4397,-0.4374,-0.4374,-0.4374,-0.4374,0,-0.4572,-0.4568,-0.4542,-0.4538,-0.4533,-0.4514,-0.4509,-0.4497,-0.4483,-0.4475,-0.4458,-0.4451,-0.4428,-0.4419,-0.4405,-0.4397,-0.4393,-0.4385,-0.4382,-0.4387,-0.4388,-0.4382,-0.4381,-0.4374,-0.4374,-0.4374,-0.4374,0,-0.4596,-0.4579,-0.457,-0.4548,-0.4542,-0.454,-0.452,-0.4515,-0.4502,-0.4493,-0.4489,-0.4468,-0.4455,-0.4437,-0.4419,-0.4409,-0.4403,-0.4397,-0.4409,-0.4407,-0.4411,-0.4411,-0.4427,-0.4427,-0.4404,-0.4404,-0.4405,0,-0.4607,-0.4604,-0.4581,-0.4575,-0.4565,-0.4556,-0.4548,-0.4528,-0.4521,-0.4502,-0.4499,-0.4485,-0.4473,-0.4455,-0.4437,-0.4423,-0.4416,-0.4423,-0.4414,-0.4419,-0.4416,-0.4417,-0.4416,-0.4425,-0.4426,-0.4426,-0.4426,0,-0.4627,-0.4619,-0.4608,-0.4594,-0.4585,-0.4574,-0.4561,-0.4557,-0.4534,-0.4526,-0.4514,-0.4504,-0.4486,-0.4473,-0.4456,-0.4445,-0.4431,-0.4429,-0.4429,-0.4434,-0.4441,-0.4437,-0.4415,-0.4429,-0.4428,-0.4428,-0.4428,-0.4428,-0.4645,-0.4641,-0.4624,-0.4613,-0.4601,-0.4589,-0.4583,-0.4569,-0.4558,-0.4542,-0.4531,-0.4519,-0.4502,-0.4478,-0.4467,-0.4457,-0.4451,-0.4451,-0.4451,-0.4452,-0.4453,-0.4443,-0.4454,-0.4454,-0.4454,-0.4454,-0.4454,0,-0.4664,-0.4652,-0.4642,-0.4625,-0.4616,-0.4604,-0.4589,-0.4582,-0.4572,-0.4557,-0.4546,-0.4531,-0.4518,-0.4499,-0.4484,-0.4479,-0.4473,-0.4476,-0.4476,-0.4473,-0.446,-0.4461,-0.4481,-0.4481,-0.4481,-0.4481,-0.4481,-0.4481,-0.4673,-0.4666,-0.4655,-0.4641,-0.4629,-0.4618,-0.461,-0.4599,-0.4587,-0.4571,-0.456,-0.4548,-0.4531,-0.4515,-0.4502,-0.4496,-0.4492,-0.4497,-0.449,-0.4477,-0.4474,-0.4472,-0.4473,-0.4496,-0.4496,-0.4504,-0.4504,-0.4504]},{"header":{"parameterUnit":"m.s-1","parameterCategory":1,"la1":30.2991,"la2":30.254,"lo1":-89.0895,"lo2":-89.0444,"dy":0.0017,"dx":0.0017,"nx":28,"ny":28,"refTime":"2025-09-08T03:00:00:Z","depth":0,"parameterNumber":3,"parameterNumberName":"V-component_of_WINDS"},"data":[0,0,0,0,0,0,0,0,0,0,0,0,0,0,0,0,0,0,0,0,0,0,0,0,0,0,0,0,0,0,0,0,0,0,0,0,0,0,0,0,0,0,0,0,0,0,0,0,0,0,0,0,0,0,0,0,0,0,-3.2821,-3.2822,0,-3.2902,-3.2903,-3.2904,-3.2976,-3.2977,-3.2978,-3.2979,-3.3056,-3.3057,-3.3058,0,0,0,0,0,0,0,0,0,0,0,0,0,-3.2727,-3.2728,-3.2821,-3.2822,-3.2823,-3.2902,-3.2903,-3.2904,-3.2976,-3.2977,-3.2978,-3.2979,-3.3055,-3.3057,-3.3058,0,0,0,0,0,0,0,0,0,0,0,0,0,-3.2783,-3.2729,-3.2821,-3.2869,-3.2874,-3.2902,-3.2903,-3.2904,-3.2976,-3.2977,-3.2978,-3.298,-3.3055,-3.3057,-3.3058,-3.3044,0,0,-3.3064,-3.3065,0,0,0,0,0,0,0,0,-3.278,-3.2787,-3.2861,-3.2866,-3.2871,-3.2931,-3.2898,-3.2951,-3.2975,-3.2937,-3.2979,-3.298,-3.3013,-3.3018,-3.303,-3.3047,-3.305,-3.3064,-3.3065,-3.3066,-3.3067,0,0,0,0,0,0,0,-3.2776,-3.2784,-3.2853,-3.2862,-3.2868,-3.2885,-3.2895,-3.2908,-3.2966,-3.294,-3.2946,-3.2955,-3.3016,-3.3028,-3.3032,-3.3052,-3.3064,-3.3066,-3.3067,-3.3068,-3.3064,-3.3063,0,0,0,0,0,0,-3.2765,-3.278,-3.2851,-3.2856,-3.2828,-3.2886,-3.2897,-3.291,-3.2966,-3.2976,-3.2954,-3.2958,-3.3024,-3.303,-3.3035,-3.3024,-3.3066,-3.3068,-3.3069,-3.3065,-3.3064,-3.3062,0,0,0,0,0,0,-3.2763,-3.2771,-3.2847,-3.2819,-3.283,-3.2886,-3.2901,-3.2911,-3.2924,-3.2976,-3.2987,-3.2956,-3.3026,-3.3033,-3.3042,-3.3027,-3.3069,-3.307,-3.3067,-3.3065,-3.3063,-3.2999,0,0,0,0,0,0,-3.276,-3.277,-3.2765,-3.2819,-3.2832,-3.2853,-3.29,-3.2912,-3.2927,-3.2934,-3.2981,-3.299,-3.3027,-3.3039,-3.3044,-3.3031,-3.3072,-3.3068,-3.3066,-3.3064,-3.3003,-3.2996,-3.2989,0,0,0,0,0,-3.2756,-3.2742,-3.2764,-3.2772,-3.2827,-3.2852,-3.286,-3.2904,-3.2926,-3.2921,-3.2956,-3.2989,-3.3028,-3.3039,-3.3046,-3.3033,-3.3069,-3.3066,-3.3064,-3.3006,-3.2997,-3.2989,0,0,0,0,0,0,-3.2682,-3.275,-3.2775,-3.2778,-3.2809,-3.2864,-3.286,-3.2892,-3.2916,-3.2921,-3.2973,-3.2984,-3.2988,-3.3011,-3.3022,-3.3023,-3.3053,-3.3052,-3.3007,-3.2999,-3.2992,-3.2987,-3.3073,0,0,0,0,0,-3.2666,-3.2682,-3.274,-3.2737,-3.2752,-3.2803,-3.2816,-3.2848,-3.2881,-3.2894,-3.2929,-3.2959,-3.2979,-3.299,-3.3011,-3.3007,-3.3019,-3.3001,-3.2995,-3.2989,-3.2986,-3.2989,-3.2982,-3.3053,-3.3054,-3.3054,0,0,-3.2633,-3.2672,-3.2678,-3.2723,-3.2751,-3.2766,-3.2813,-3.2826,-3.2838,-3.2895,-3.2908,-3.2934,-3.2972,-3.2975,-3.2978,-3.2995,-3.297,-3.2985,-3.298,-3.2981,-3.2985,-3.2978,-3.2972,-3.3052,-3.3052,-3.3052,0,0,-3.258,-3.2611,-3.2614,-3.2642,-3.2685,-3.272,-3.272,-3.2772,-3.2793,-3.2807,-3.2851,-3.2865,-3.2897,-3.2923,-3.2939,-3.2901,-3.2933,-3.2906,-3.287,-3.2871,-3.2866,-3.2861,-3.2849,-3.2843,-3.2904,-3.2904,-3.2904,0,-3.2533,-3.2559,-3.261,-3.2622,-3.2641,-3.2697,-3.2699,-3.2723,-3.277,-3.2781,-3.28,-3.2844,-3.2872,-3.2884,-3.2875,-3.2887,-3.2889,-3.2901,-3.2863,-3.2859,-3.2855,-3.2844,-3.2839,-3.29,-3.2901,-3.2901,-3.2901,0,-3.25,-3.2517,-3.2513,-3.2561,-3.2579,-3.2586,-3.2638,-3.265,-3.2681,-3.2714,-3.2728,-3.2766,-3.2796,-3.2801,-3.283,-3.2818,-3.2827,-3.2853,-3.2885,-3.2844,-3.2834,-3.283,-3.2896,-3.2897,-3.2898,-3.2899,0,0,-3.2399,-3.2478,-3.2476,-3.25,-3.2553,-3.2567,-3.2577,-3.261,-3.262,-3.2651,-3.2661,-3.2689,-3.2715,-3.2735,-3.2767,-3.2768,-3.2738,-3.2795,-3.2797,-3.2784,-3.2728,-3.2708,-3.2703,-3.276,-3.2759,-3.2759,-3.2726,0,-3.2356,-3.238,-3.2428,-3.2436,-3.2454,-3.2509,-3.2518,-3.2551,-3.2583,-3.2602,-3.2637,-3.2657,-3.2689,-3.2701,-3.2705,-3.2741,-3.2728,-3.2744,-3.2769,-3.277,-3.2759,-3.2697,-3.2676,-3.2643,-3.2722,-3.2721,-3.2721,0,-3.2308,-3.234,-3.2351,-3.2407,-3.2416,-3.2423,-3.2459,-3.2476,-3.2516,-3.2539,-3.2563,-3.26,-3.2614,-3.2644,-3.2664,-3.2674,-3.2688,-3.2707,-3.2707,-3.2711,-3.2743,-3.27,-3.2633,-3.2628,-3.2715,-3.2716,-3.2716,0,-3.2236,-3.2281,-3.2294,-3.2312,-3.2377,-3.2382,-3.2408,-3.245,-3.2467,-3.2498,-3.251,-3.2541,-3.2557,-3.258,-3.2625,-3.2642,-3.2641,-3.2674,-3.266,-3.2659,-3.2657,-3.2656,-3.2591,-3.2665,-3.2665,-3.2665,-3.2665,0,-3.2183,-3.2187,-3.2263,-3.2271,-3.2278,-3.2334,-3.2339,-3.2371,-3.2408,-3.2423,-3.2471,-3.2484,-3.2543,-3.2562,-3.2597,-3.2609,-3.2616,-3.2635,-3.2644,-3.2631,-3.2629,-3.264,-3.2644,-3.2664,-3.2664,-3.2664,-3.2664,0,-3.2103,-3.2153,-3.2172,-3.2234,-3.2249,-3.2252,-3.2304,-3.2314,-3.2351,-3.2369,-3.2376,-3.2433,-3.2458,-3.2506,-3.2544,-3.2568,-3.2573,-3.2589,-3.256,-3.2566,-3.2551,-3.2552,-3.2491,-3.2486,-3.2561,-3.2561,-3.256,0,-3.2065,-3.2071,-3.2135,-3.215,-3.2176,-3.2199,-3.2219,-3.2274,-3.2292,-3.234,-3.2344,-3.2374,-3.2401,-3.244,-3.2483,-3.2514,-3.2531,-3.2508,-3.2535,-3.2523,-3.2532,-3.2531,-3.2533,-3.2501,-3.25,-3.2499,-3.2498,0,-3.1994,-3.2021,-3.2048,-3.2085,-3.2108,-3.2139,-3.2173,-3.2182,-3.2245,-3.2263,-3.2292,-3.2313,-3.2354,-3.2384,-3.2421,-3.2448,-3.2483,-3.2489,-3.2488,-3.2474,-3.2458,-3.2468,-3.2544,-3.249,-3.2491,-3.2492,-3.2492,-3.2492,-3.1935,-3.1944,-3.1992,-3.2022,-3.2054,-3.2085,-3.2098,-3.2138,-3.2164,-3.2204,-3.2235,-3.2261,-3.2303,-3.2358,-3.2383,-3.2404,-3.242,-3.2418,-3.2417,-3.2416,-3.2412,-3.2455,-3.2411,-3.2411,-3.2411,-3.2411,-3.2412,0,-3.1868,-3.1903,-3.193,-3.1978,-3.2001,-3.2036,-3.2076,-3.2093,-3.2117,-3.2154,-3.2182,-3.2216,-3.2246,-3.2293,-3.2327,-3.2335,-3.2352,-3.2342,-3.2342,-3.2348,-3.2394,-3.2393,-3.2327,-3.2327,-3.2327,-3.2328,-3.2328,-3.2328,-3.1836,-3.1854,-3.1886,-3.192,-3.1954,-3.1983,-3.2003,-3.2033,-3.2063,-3.21,-3.2127,-3.2159,-3.22,-3.2238,-3.2268,-3.2281,-3.2291,-3.2276,-3.2294,-3.2336,-3.2344,-3.2351,-3.235,-3.2277,-3.2277,-3.2246,-3.2246,-3.2245]}]]